Flag for Lebanon Weather past 2 weeks in Sidon, Lebanon

Now
82 °F

Passing clouds.


Feels Like: 84 °F
Forecast: 77 / 86 °F
Wind: 6 mph from South

Location: Beirut Airport

Current Time: Sep 2, 2014 at 10:19:38 PM

Latest Report: Sep 2, 2014 at 9:00 PM


Visibility: N/A

Pressure: 29.86 "Hg

Humidity: 55%

Dew point: 64 °F

Location of SidonLocation

Historic Weather in Sidon — Graph

°F

Sidon temperature yesterday

Maximum temperature yesterday: 88 °F (at 10:00 AM)
Minimum temperature yesterday: 82 °F (at 4:00 AM)
Average temperature yesterday: 84 °F

Past Weeks' High & Low Weather Summary

 TemperatureHumidityPressure
High88 °F (Aug 19, 12:00 PM)84% (Aug 23, 11:00 PM)29.98 "Hg (Aug 23, 11:00 PM)
Low77 °F (Aug 20, 7:00 AM)49% (Aug 21, 4:00 PM)29.71 "Hg (Aug 24, 5:00 AM)
Average83 °F68%29.82 "Hg
* Reported Aug 18 9:00 PM — Sep 2 9:00 PM, Sidon, Weather by CustomWeather, © 2014

Note: Actual official high and low records may vary slightly from our data, if they occured in-between our weather recording intervals... More about our weather records

Advertising

Sidon weather history for previous 24 hours

 ConditionsComfort  
Time TempWeatherWind HumidityBarometerVisibility
9:00 PM
Sep 2
82 °FPassing clouds.6 mph55%29.86 "HgN/A
8:00 PM82 °FPartly sunny.8 mph55%29.80 "HgN/A
7:00 PM84 °FScattered clouds.9 mph51%29.80 "HgN/A
6:00 PM84 °FScattered clouds.9 mph55%29.80 "HgN/A
5:00 PM86 °FScattered clouds.10 mph49%29.80 "HgN/A
4:00 PM86 °FScattered clouds.10 mph49%29.80 "HgN/A
3:00 PM86 °FScattered clouds.9 mph52%29.80 "HgN/A
2:00 PM86 °FScattered clouds.9 mph49%29.80 "HgN/A
1:00 PM86 °FScattered clouds.10 mph49%29.80 "HgN/A
12:00 PM86 °FScattered clouds.12 mph49%29.80 "HgN/A
11:00 AM84 °FScattered clouds.12 mph55%29.83 "HgN/A
10:00 AM84 °FScattered clouds.12 mph58%29.80 "HgN/A
9:00 AM84 °FScattered clouds.9 mph58%29.80 "HgN/A
8:00 AM81 °FScattered clouds.7 mph66%29.80 "HgN/A
7:00 AM79 °FPassing clouds.6 mph70%29.80 "HgN/A
6:00 AM79 °FPassing clouds.5 mph70%29.77 "HgN/A
5:00 AM79 °FPassing clouds.5 mph70%29.77 "Hg5 mi
4:00 AM81 °FPassing clouds.5 mph66%29.77 "Hg5 mi
3:00 AM81 °FPassing clouds.7 mph70%29.80 "Hg5 mi
2:00 AM81 °FPassing clouds.7 mph70%29.80 "Hg5 mi
1:00 AM82 °FPassing clouds.9 mph66%29.80 "Hg5 mi
12:00 AM82 °FPassing clouds.12 mph66%29.80 "Hg5 mi
11:00 PM
Sep 1
82 °FPassing clouds.9 mph70%29.80 "Hg5 mi
10:00 PM82 °FPassing clouds.9 mph70%29.80 "Hg5 mi
Weather by CustomWeather, © 2014

See weather overviewHow to use our weather pages